Location: Lewisville
(33.0462°N, 96.9942°W)
Time: 01:35:43
(UTC-05:00)

Hubble Space Telescope - Pass Details

Date: 14 August 2020
Orbit: 536 x 539 km, 28.5° (Epoch: 18 October)

Event Time Altitude Azimuth Distance (km) Brightness Sun altitude
Exits shadow 04:54:01 36° 144° (SE) 848 1.7 -22.7°
Drops below altitude 10° 04:57:06 10° 104° (ESE) 1,782 3.9 -22.1°
Sets 04:59:27 0° 97° (E) 2,673 5.1 -21.7°
